K5TWC Weather Reports


time (UTC)temp
F
wind
direction
speed
knots
gust
knots
rain 1hr
in
rain 24hr
in
rain mn
in
humidity
%
barometer
mb
20260504221003 82 159 6.1 13.0 0.00 0.00 0.00 58 1007.6
20260504220504 82 360 4.3 13.9 0.00 0.00 0.00 58 1007.8
20260504220006 82 360 3.5 13.9 0.00 0.00 0.00 57 1007.8
20260504215504 83 360 4.3 11.3 0.00 0.00 0.00 57 1008.0
20260504215004 82 115 0.9 13.0 0.00 0.00 0.00 59 1007.9
20260504214509 82 165 1.7 13.0 0.00 0.00 0.00 58 1008.0
20260504214004 82 360 3.5 11.3 0.00 0.00 0.00 57 1008.2
20260504213504 82 196 2.6 13.9 0.00 0.00 0.00 57 1008.2
20260504213009 82 99 5.2 13.9 0.00 0.00 0.00 57 1008.1
20260504212504 82 360 2.6 12.2 0.00 0.00 0.00 57 1008.3
20260504212003 82 130 3.5 14.8 0.00 0.00 0.00 56 1008.8
20260504211509 82 360 3.5 14.8 0.00 0.00 0.00 57 1008.5
20260504211005 82 182 5.2 13.9 0.00 0.00 0.00 56 1009.0
20260504210505 82 360 4.3 10.4 0.00 0.00 0.00 55 1008.9
20260504210005 82 182 4.3 13.9 0.00 0.00 0.00 56 1008.8
20260504205505 82 360 6.1 14.8 0.00 0.00 0.00 55 1009.0
20260504205005 82 360 4.3 16.5 0.00 0.00 0.00 55 1009.1
20260504204508 82 119 3.5 16.5 0.00 0.00 0.00 55 1009.2
20260504204004 82 261 4.3 13.0 0.00 0.00 0.00 54 1009.4
20260504203504 82 186 2.6 9.6 0.00 0.00 0.00 54 1009.3
20260504202505 83 202 5.2 9.6 0.00 0.00 0.00 52 1009.7
20260504202006 83 155 1.7 8.7 0.00 0.00 0.00 53 1009.8
20260504201511 83 360 1.7 13.0 0.00 0.00 0.00 53 1009.8
20260504201004 82 180 3.5 15.6 0.00 0.00 0.00 53 1010.0
20260504200506 82 116 5.2 15.6 0.00 0.00 0.00 53 1010.2
20260504200023 82 180 5.2 12.2 0.00 0.00 0.00 52 1010.1
20260504195504 82 360 5.2 10.4 0.00 0.00 0.00 52 1010.2
20260504195003 82 147 5.2 9.6 0.00 0.00 0.00 53 1010.2
20260504194508 82 169 0.9 12.2 0.00 0.00 0.00 53 1010.3
20260504194005 82 277 3.5 13.0 0.00 0.00 0.00 53 1010.4
20260504193504 81 160 2.6 13.9 0.00 0.00 0.00 53 1010.4
20260504193010 81 115 5.2 13.9 0.00 0.00 0.00 53 1010.4
20260504192505 81 33 3.5 13.0 0.00 0.00 0.00 53 1010.8
20260504192007 81 360 5.2 13.0 0.00 0.00 0.00 52 1010.7
20260504191527 82 176 5.2 13.0 0.00 0.00 0.00 51 1010.8
20260504191005 82 360 2.6 9.6 0.00 0.00 0.00 52 1010.9
20260504190507 81 109 1.7 11.3 0.00 0.00 0.00 52 1010.9
20260504190015 81 360 2.6 11.3 0.00 0.00 0.00 52 1011.0
20260504185508 81 352 2.6 11.3 0.00 0.00 0.00 52 1010.9
20260504185004 81 157 1.7 15.6 0.00 0.00 0.00 51 1011.0
20260504184515 81 220 4.3 15.6 0.00 0.00 0.00 51 1011.0
20260504184004 81 360 4.3 13.0 0.00 0.00 0.00 50 1011.2
20260504183504 81 123 3.5 13.0 0.00 0.00 0.00 49 1011.2
20260504183012 81 360 7.0 13.0 0.00 0.00 0.00 49 1011.3
20260504182503 81 360 2.6 8.7 0.00 0.00 0.00 50 1011.4
20260504182006 81 177 4.3 12.2 0.00 0.00 0.00 50 1011.6
20260504181522 80 180 2.6 12.2 0.00 0.00 0.00 50 1011.7
20260504181005 80 166 4.3 11.3 0.00 0.00 0.00 50 1011.7
20260504180511 80 154 2.6 9.6 0.00 0.00 0.00 50 1011.7
20260504180020 80 190 2.6 13.0 0.00 0.00 0.00 50 1011.9
20260504175503 80 186 4.3 13.0 0.00 0.00 0.00 50 1012.0
20260504175004 79 163 6.1 13.0 0.00 0.00 0.00 50 1012.1
20260504174519 79 186 2.6 10.4 0.00 0.00 0.00 51 1012.1
20260504174004 79 229 2.6 10.4 0.00 0.00 0.00 52 1012.2
20260504173506 78 360 2.6 10.4 0.00 0.00 0.00 52 1012.2
20260504173018 78 169 4.3 10.4 0.00 0.00 0.00 52 1012.3
20260504172509 78 360 5.2 13.0 0.00 0.00 0.00 52 1012.4
20260504172002 78 164 3.5 10.4 0.00 0.00 0.00 53 1012.3
20260504171508 78 144 2.6 11.3 0.00 0.00 0.00 53 1012.5
20260504171008 78 360 3.5 11.3 0.00 0.00 0.00 53 1012.7
20260504170504 77 126 5.2 13.0 0.00 0.00 0.00 53 1012.7
20260504151006 72 142 0.9 8.7 0.00 0.00 0.00 64 1014.0
20260504150509 72 148 1.7 16.5 0.00 0.00 0.00 64 1013.9
20260504141013 69 207 2.6 10.4 0.00 0.00 0.00 67 1014.3
20260504140508 69 142 2.6 10.4 0.00 0.00 0.00 67 1014.2
20260504130510 66 257 0.0 8.7 0.00 0.00 0.00 73 1014.4
20260504110503 61 193 0.0 6.1 0.00 0.00 0.00 75 1013.9
20260504100504 62 199 0.0 3.5 0.00 0.00 0.00 74 1014.3
20260504082005 64 360 0.0 7.8 0.00 0.00 0.00 68 1014.6
20260504081526 64 180 0.0 7.8 0.00 0.00 0.00 68 1014.6
20260504081006 64 360 0.9 5.2 0.00 0.00 0.00 67 1014.6
20260504080510 64 288 0.0 5.2 0.00 0.00 0.00 67 1014.6
20260504050507 68 360 0.9 4.3 0.00 0.00 0.00 60 1016.5
20260504050021 68 202 0.0 2.6 0.00 0.00 0.00 60 1016.5
20260504045507 68 240 0.0 1.7 0.00 0.00 0.00 60 1016.6
20260504045012 68 242 0.0 4.3 0.00 0.00 0.00 60 1016.6
20260504044532 68 234 0.0 4.3 0.00 0.00 0.00 60 1016.7
20260504044011 68 267 0.0 2.6 0.00 0.00 0.00 59 1016.7
20260504043508 68 206 0.0 3.5 0.00 0.00 0.00 59 1016.6
20260504043028 68 220 0.0 4.3 0.00 0.00 0.00 59 1016.6
20260504042508 68 212 0.0 4.3 0.00 0.00 0.00 59 1016.7
20260504042009 69 211 0.0 7.0 0.00 0.00 0.00 59 1016.7
20260504041528 69 200 0.0 7.0 0.00 0.00 0.00 59 1016.7
20260504041011 69 238 0.0 4.3 0.00 0.00 0.00 60 1016.7
20260504040504 68 208 0.0 4.3 0.00 0.00 0.00 60 1016.7
20260504040021 68 211 0.0 2.6 0.00 0.00 0.00 60 1016.7
20260504035509 68 219 0.0 2.6 0.00 0.00 0.00 59 1016.7
20260504035006 69 202 0.0 5.2 0.00 0.00 0.00 59 1016.8
20260504034534 69 217 0.0 5.2 0.00 0.00 0.00 59 1016.7
20260504034006 69 186 0.0 3.5 0.00 0.00 0.00 59 1016.7
20260504033507 69 185 0.0 4.3 0.00 0.00 0.00 58 1016.7
20260504033024 69 182 0.0 4.3 0.00 0.00 0.00 57 1016.7
20260504032507 69 194 0.0 1.7 0.00 0.00 0.00 57 1016.7
20260504032011 69 198 0.0 3.5 0.00 0.00 0.00 57 1016.6
20260504031526 70 255 0.0 3.5 0.00 0.00 0.00 57 1016.5
20260504031010 70 221 0.0 3.5 0.00 0.00 0.00 57 1016.4
20260504030512 70 205 0.0 5.2 0.00 0.00 0.00 57 1016.4
20260504030039 70 185 0.0 5.2 0.00 0.00 0.00 56 1016.4
20260504025507 70 206 0.0 3.5 0.00 0.00 0.00 56 1016.4
20260504025004 71 207 0.0 2.6 0.00 0.00 0.00 56 1016.4
20260504024522 71 202 0.0 3.5 0.00 0.00 0.00 56 1016.4
20260504024007 71 214 0.0 3.5 0.00 0.00 0.00 55 1016.4
20260504023507 71 201 0.0 5.2 0.00 0.00 0.00 55 1016.4
20260504023005 71 202 0.0 5.2 0.00 0.00 0.00 54 1016.4
20260504022503 72 229 0.0 4.3 0.00 0.00 0.00 54 1016.4
20260504022004 72 207 0.0 3.5 0.00 0.00 0.00 53 1016.4
20260504021510 72 193 0.0 3.5 0.00 0.00 0.00 53 1016.4
20260504021003 72 287 0.0 2.6 0.00 0.00 0.00 52 1016.3
20260504020508 72 211 0.0 3.5 0.00 0.00 0.00 51 1016.2
20260504020012 73 200 0.0 3.5 0.00 0.00 0.00 51 1016.2
20260504015504 73 360 0.0 3.5 0.00 0.00 0.00 50 1016.2
20260504015004 73 204 0.0 3.5 0.00 0.00 0.00 49 1016.2
20260504014533 73 211 0.0 3.5 0.00 0.00 0.00 48 1016.2
20260504014010 74 221 0.0 4.3 0.00 0.00 0.00 48 1016.2
20260504013507 74 229 0.0 4.3 0.00 0.00 0.00 47 1016.2
20260504013021 74 213 0.0 4.3 0.00 0.00 0.00 47 1016.2
20260504012508 74 202 0.0 4.3 0.00 0.00 0.00 46 1016.2
20260504012003 75 203 0.0 4.3 0.00 0.00 0.00 45 1016.1
20260504011505 75 177 0.0 4.3 0.00 0.00 0.00 45 1016.1
20260504011005 75 202 0.0 4.3 0.00 0.00 0.00 44 1016.0
20260504010504 76 360 0.0 3.5 0.00 0.00 0.00 44 1016.0
20260504010015 76 360 0.9 3.5 0.00 0.00 0.00 43 1016.0
20260504005503 76 209 0.9 4.3 0.00 0.00 0.00 43 1015.9
20260504005004 77 200 0.0 5.2 0.00 0.00 0.00 43 1015.9
20260504004517 77 176 0.0 7.0 0.00 0.00 0.00 42 1015.9
20260504004004 78 174 0.0 7.0 0.00 0.00 0.00 41 1015.9
20260504003507 79 223 0.9 5.2 0.00 0.00 0.00 40 1015.9
20260504003028 79 360 0.9 8.7 0.00 0.00 0.00 41 1016.0
20260504002507 79 211 1.7 8.7 0.00 0.00 0.00 40 1015.9
20260504002008 80 215 1.7 7.0 0.00 0.00 0.00 40 1016.0
20260504001522 80 209 1.7 7.0 0.00 0.00 0.00 39 1016.0
20260504001003 80 210 0.9 8.7 0.00 0.00 0.00 39 1016.0
20260504000503 80 360 1.7 8.7 0.00 0.00 0.00 38 1016.1
20260504000005 80 197 0.9 7.8 0.00 0.00 0.00 38 1016.1
20260503235504 80 360 0.9 7.8 0.00 0.00 0.00 39 1016.1
20260503235008 80 142 2.6 7.8 0.00 0.00 0.00 38 1016.1
20260503234527 81 142 2.6 7.8 0.00 0.00 0.00 39 1016.0
20260503234003 81 172 1.7 8.7 0.00 0.00 0.00 39 1016.2
20260503233504 81 190 0.9 9.6 0.00 0.00 0.00 39 1016.2
20260503233018 81 129 1.7 12.2 0.00 0.00 0.00 38 1016.2
20260503232504 82 194 3.5 12.2 0.00 0.00 0.00 38 1016.2
20260503232008 82 194 3.5 9.6 0.00 0.00 0.00 38 1016.2
20260503231523 82 152 0.9 4.3 0.00 0.00 0.00 39 1016.2
20260503231009 82 186 0.0 7.0 0.00 0.00 0.00 39 1016.3
20260503230506 83 190 1.7 7.8 0.00 0.00 0.00 38 1016.3
20260503230024 83 360 1.7 7.8 0.00 0.00 0.00 37 1016.2
20260503225503 83 159 0.9 9.6 0.00 0.00 0.00 37 1016.3
20260503225005 83 171 1.7 9.6 0.00 0.00 0.00 36 1016.4
20260503224527 83 234 1.7 8.7 0.00 0.00 0.00 35 1016.4
20260503224004 84 360 0.0 7.8 0.00 0.00 0.00 34 1016.5
20260503223503 84 360 1.7 7.8 0.00 0.00 0.00 33 1016.6
20260503223014 84 235 0.9 7.8 0.00 0.00 0.00 35 1016.6
20260503222507 84 221 0.9 8.7 0.00 0.00 0.00 35 1016.6
20260503222008 84 84 0.9 8.7 0.00 0.00 0.00 35 1016.6
20260503221520 84 360 0.9 13.0 0.00 0.00 0.00 35 1016.7